SKW4235 KSGU-KSLC

Flight info

Callsign SKW4235
Flight time 0h 42m
Altitude 31000
Route HIVKA2 URIAH MLF QWENN6
Aircraft E75L/M-SDE3GILORVW/S

Departure

Time 2026-04-25 14:18
Airport St George Regional Airport (KSGU)

Arrival

Time 2026-04-25 15:01
Airport Salt Lake City International Airport (KSLC)
Time Latitude Longitude Altitude Speed Heading
2026-04-25 13:56 37.03079 -113.50981 2872 ft 0 kts 113°
2026-04-25 14:10 37.03087 -113.51002 2871 ft 2 kts 128°
2026-04-25 14:10 37.03097 -113.51009 2871 ft 2 kts 177°
2026-04-25 14:11 37.03107 -113.51006 2871 ft 2 kts 197°
2026-04-25 14:11 37.03118 -113.51002 2871 ft 2 kts 201°
2026-04-25 14:11 37.03124 -113.50999 2871 ft 0 kts 202°
2026-04-25 14:13 37.03121 -113.51001 2870 ft 1 kts 208°
2026-04-25 14:14 37.03104 -113.51057 2868 ft 11 kts 252°
2026-04-25 14:14 37.03067 -113.51111 2866 ft 13 kts 205°
2026-04-25 14:14 37.02981 -113.51156 2866 ft 14 kts 203°
2026-04-25 14:14 37.02846 -113.51227 2863 ft 18 kts 203°
2026-04-25 14:15 37.02722 -113.51293 2858 ft 20 kts 202°
2026-04-25 14:15 37.02677 -113.51317 2857 ft 21 kts 203°
2026-04-25 14:15 37.02519 -113.51400 2855 ft 11 kts 203°
2026-04-25 14:15 37.02463 -113.51429 2855 ft 5 kts 202°
2026-04-25 14:16 37.02440 -113.51442 2854 ft 6 kts 202°
2026-04-25 14:16 37.02415 -113.51474 2856 ft 5 kts 262°
2026-04-25 14:16 37.02422 -113.51511 2854 ft 3 kts 294°
2026-04-25 14:16 37.02433 -113.51542 2856 ft 5 kts 294°
2026-04-25 14:17 37.02452 -113.51596 2857 ft 9 kts 294°
2026-04-25 14:17 37.02512 -113.51626 2856 ft 11 kts 19°
2026-04-25 14:17 37.02529 -113.51618 2856 ft 0 kts 23°
2026-04-25 14:18 37.02606 -113.51577 2857 ft 40 kts 22°
2026-04-25 14:18 37.03084 -113.51325 2866 ft 107 kts 23°
2026-04-25 14:18 37.03944 -113.50869 2906 ft 159 kts 22°
2026-04-25 14:18 37.05018 -113.50317 3662 ft 166 kts 22°
2026-04-25 14:19 37.06100 -113.49816 4307 ft 180 kts 18°
2026-04-25 14:19 37.07405 -113.49620 4952 ft 205 kts 356°
2026-04-25 14:19 37.08945 -113.49968 5451 ft 237 kts 344°
2026-04-25 14:19 37.10538 -113.50606 6168 ft 246 kts 340°
2026-04-25 14:20 37.12165 -113.51434 6775 ft 259 kts 334°
2026-04-25 14:20 37.13258 -113.52085 7185 ft 266 kts 332°
2026-04-25 14:20 37.15422 -113.53750 7952 ft 282 kts 325°
2026-04-25 14:20 37.17103 -113.55101 8609 ft 289 kts 325°
2026-04-25 14:21 37.18808 -113.56459 9354 ft 292 kts 325°
2026-04-25 14:21 37.20531 -113.57839 10007 ft 295 kts 324°
2026-04-25 14:21 37.22304 -113.59258 10342 ft 311 kts 326°
2026-04-25 14:21 37.24234 -113.60524 10744 ft 322 kts 333°
2026-04-25 14:22 37.26303 -113.61644 11368 ft 326 kts 335°
2026-04-25 14:22 37.28422 -113.62700 11995 ft 329 kts 336°
2026-04-25 14:22 37.30607 -113.63603 12643 ft 333 kts 341°
2026-04-25 14:22 37.32851 -113.64385 13316 ft 336 kts 341°
2026-04-25 14:23 37.35120 -113.65155 13941 ft 339 kts 341°
2026-04-25 14:23 37.37415 -113.65924 14557 ft 343 kts 341°
2026-04-25 14:23 37.39720 -113.66701 15261 ft 344 kts 340°
2026-04-25 14:23 37.42036 -113.67482 15962 ft 346 kts 340°
2026-04-25 14:24 37.44363 -113.68266 16692 ft 347 kts 340°
2026-04-25 14:24 37.46708 -113.69027 17390 ft 351 kts 344°
2026-04-25 14:24 37.49156 -113.68989 18075 ft 367 kts
2026-04-25 14:24 37.51608 -113.67953 18671 ft 376 kts 18°
2026-04-25 14:25 37.54010 -113.66582 19258 ft 382 kts 20°
2026-04-25 14:25 37.56406 -113.65092 19871 ft 387 kts 21°
2026-04-25 14:25 37.58794 -113.63462 20527 ft 394 kts 26°
2026-04-25 14:25 37.60376 -113.62231 20928 ft 397 kts 26°
2026-04-25 14:26 37.63500 -113.59766 21683 ft 404 kts 27°
2026-04-25 14:26 37.65893 -113.57861 22230 ft 409 kts 26°
2026-04-25 14:26 37.68311 -113.55934 22779 ft 413 kts 26°
2026-04-25 14:26 37.70750 -113.53988 23313 ft 417 kts 26°
2026-04-25 14:27 37.73217 -113.52018 23790 ft 421 kts 26°
2026-04-25 14:27 37.75703 -113.50032 24280 ft 424 kts 26°
2026-04-25 14:27 37.78199 -113.48035 24777 ft 427 kts 26°
2026-04-25 14:27 37.80687 -113.46044 25285 ft 430 kts 26°
2026-04-25 14:28 37.83224 -113.44012 25787 ft 433 kts 26°
2026-04-25 14:28 37.85771 -113.41970 26307 ft 437 kts 26°
2026-04-25 14:28 37.88353 -113.39898 26762 ft 440 kts 26°
2026-04-25 14:28 37.90945 -113.37817 27210 ft 443 kts 25°
2026-04-25 14:29 37.93565 -113.35711 27612 ft 446 kts 25°
2026-04-25 14:29 37.96193 -113.33597 28023 ft 449 kts 25°
2026-04-25 14:29 37.98842 -113.31465 28408 ft 452 kts 25°
2026-04-25 14:29 38.01505 -113.29319 28815 ft 455 kts 25°
2026-04-25 14:30 38.04188 -113.27155 29198 ft 458 kts 25°
2026-04-25 14:30 38.09553 -113.22823 29865 ft 465 kts 25°
2026-04-25 14:30 38.12312 -113.20593 30072 ft 472 kts 25°
2026-04-25 14:31 38.15078 -113.18353 30511 ft 471 kts 25°
2026-04-25 14:31 38.17813 -113.16131 30751 ft 457 kts 25°
2026-04-25 14:31 38.23181 -113.11787 30883 ft 466 kts 25°
2026-04-25 14:32 38.28712 -113.07289 30932 ft 479 kts 25°
2026-04-25 14:32 38.34310 -113.02805 30929 ft 473 kts 22°
2026-04-25 14:33 38.40150 -112.99160 30946 ft 465 kts 15°
2026-04-25 14:33 38.46107 -112.95955 30934 ft 464 kts 14°
2026-04-25 14:34 38.52073 -112.92779 30932 ft 464 kts 14°
2026-04-25 14:34 38.58030 -112.89598 30906 ft 464 kts 14°
2026-04-25 14:35 38.63950 -112.86429 30396 ft 463 kts 14°
2026-04-25 14:35 38.66924 -112.84836 29956 ft 462 kts 14°
2026-04-25 14:35 38.69889 -112.83248 29422 ft 463 kts 14°
2026-04-25 14:36 38.72852 -112.81656 28925 ft 461 kts 14°
2026-04-25 14:36 38.75788 -112.80077 28437 ft 457 kts 14°
2026-04-25 14:36 38.78716 -112.78502 27955 ft 453 kts 15°
2026-04-25 14:36 38.81614 -112.76940 27483 ft 450 kts 15°
2026-04-25 14:37 38.84447 -112.75416 27030 ft 447 kts 15°
2026-04-25 14:37 38.87302 -112.73875 26603 ft 443 kts 15°
2026-04-25 14:37 38.90135 -112.72346 26153 ft 440 kts 15°
2026-04-25 14:37 38.92946 -112.70828 25709 ft 437 kts 16°
2026-04-25 14:38 38.95737 -112.69317 25275 ft 434 kts 16°
2026-04-25 14:38 38.98517 -112.67813 24845 ft 432 kts 17°
2026-04-25 14:38 39.01276 -112.66318 24416 ft 429 kts 17°
2026-04-25 14:38 39.04016 -112.64832 24002 ft 426 kts 17°
2026-04-25 14:39 39.06741 -112.63354 23588 ft 423 kts 17°
2026-04-25 14:39 39.09408 -112.61905 23157 ft 420 kts 18°
2026-04-25 14:39 39.12083 -112.60449 22666 ft 415 kts 18°
2026-04-25 14:39 39.14735 -112.59007 22190 ft 412 kts 18°
2026-04-25 14:40 39.17359 -112.57579 21716 ft 408 kts 18°
2026-04-25 14:40 39.19962 -112.56160 21250 ft 404 kts 18°
2026-04-25 14:40 39.22540 -112.54754 20791 ft 400 kts 19°
2026-04-25 14:40 39.25093 -112.53361 20338 ft 397 kts 19°
2026-04-25 14:41 39.27602 -112.52026 19897 ft 393 kts 18°
2026-04-25 14:41 39.30102 -112.50626 19485 ft 390 kts 20°
2026-04-25 14:41 39.32576 -112.49216 19115 ft 388 kts 20°
2026-04-25 14:41 39.35045 -112.47801 18742 ft 387 kts 20°
2026-04-25 14:42 39.37498 -112.46394 18389 ft 384 kts 21°
2026-04-25 14:42 39.39109 -112.45470 18174 ft 382 kts 20°
2026-04-25 14:42 39.42352 -112.43606 17679 ft 381 kts 20°
2026-04-25 14:42 39.44767 -112.42218 17304 ft 378 kts 21°
2026-04-25 14:43 39.47168 -112.40838 16959 ft 376 kts 21°
2026-04-25 14:43 39.49549 -112.39468 16642 ft 374 kts 21°
2026-04-25 14:43 39.51889 -112.38119 16340 ft 373 kts 21°
2026-04-25 14:43 39.54251 -112.36759 16035 ft 371 kts 21°
2026-04-25 14:44 39.56599 -112.35404 15796 ft 369 kts 21°
2026-04-25 14:44 39.58945 -112.34049 15549 ft 369 kts 21°
2026-04-25 14:44 39.61280 -112.32702 15304 ft 367 kts 21°
2026-04-25 14:44 39.63607 -112.31358 15055 ft 365 kts 21°
2026-04-25 14:45 39.65921 -112.30021 14816 ft 364 kts 21°
2026-04-25 14:45 39.68227 -112.28686 14578 ft 362 kts 21°
2026-04-25 14:45 39.70526 -112.27355 14331 ft 360 kts 21°
2026-04-25 14:45 39.72808 -112.26033 14118 ft 358 kts 21°
2026-04-25 14:46 39.75080 -112.24715 14005 ft 358 kts 21°
2026-04-25 14:46 39.77322 -112.23413 13933 ft 357 kts 21°
2026-04-25 14:46 39.79599 -112.22093 13938 ft 358 kts 21°
2026-04-25 14:46 39.81873 -112.20770 13948 ft 357 kts 21°
2026-04-25 14:47 39.84132 -112.19458 13946 ft 356 kts 21°
2026-04-25 14:47 39.85604 -112.18598 13930 ft 342 kts 21°
2026-04-25 14:47 39.88409 -112.16965 13887 ft 321 kts 21°
2026-04-25 14:47 39.90437 -112.15786 13864 ft 317 kts 21°
2026-04-25 14:48 39.92461 -112.14608 13867 ft 321 kts 21°
2026-04-25 14:48 39.94511 -112.13436 13885 ft 321 kts 20°
2026-04-25 14:48 39.96569 -112.12303 13908 ft 321 kts 19°
2026-04-25 14:48 39.98659 -112.11308 13900 ft 320 kts 14°
2026-04-25 14:49 40.00805 -112.10427 13395 ft 324 kts 14°
2026-04-25 14:49 40.02958 -112.09568 12839 ft 323 kts 14°
2026-04-25 14:49 40.05080 -112.08721 12314 ft 323 kts 13°
2026-04-25 14:49 40.07225 -112.07869 11763 ft 322 kts 14°
2026-04-25 14:50 40.09368 -112.07016 11226 ft 322 kts 14°
2026-04-25 14:50 40.11465 -112.06176 11060 ft 309 kts 14°
2026-04-25 14:50 40.13471 -112.05373 10974 ft 294 kts 14°
2026-04-25 14:50 40.15376 -112.04613 10932 ft 281 kts 14°
2026-04-25 14:51 40.17216 -112.03880 10918 ft 273 kts 13°
2026-04-25 14:51 40.19036 -112.03154 10936 ft 276 kts 14°
2026-04-25 14:51 40.20881 -112.02415 10956 ft 277 kts 14°
2026-04-25 14:51 40.22722 -112.01677 10971 ft 276 kts 14°
2026-04-25 14:52 40.24559 -112.00940 10968 ft 277 kts 14°
2026-04-25 14:52 40.26402 -112.00202 10967 ft 276 kts 14°
2026-04-25 14:52 40.28215 -111.99475 10963 ft 276 kts 14°
2026-04-25 14:52 40.29457 -111.98975 10967 ft 276 kts 14°
2026-04-25 14:53 40.31894 -111.97995 10966 ft 276 kts 14°
2026-04-25 14:53 40.33728 -111.97258 10963 ft 276 kts 14°
2026-04-25 14:53 40.35567 -111.96520 10950 ft 276 kts 14°
2026-04-25 14:53 40.37408 -111.95831 10960 ft 276 kts 15°
2026-04-25 14:54 40.39240 -111.95070 10965 ft 277 kts 14°
2026-04-25 14:54 40.41080 -111.94323 10958 ft 277 kts 14°
2026-04-25 14:54 40.42926 -111.93619 10849 ft 278 kts
2026-04-25 14:54 40.44808 -111.93572 10535 ft 272 kts 351°
2026-04-25 14:55 40.46683 -111.93840 10203 ft 269 kts 352°
2026-04-25 14:55 40.48545 -111.93987 9882 ft 267 kts 354°
2026-04-25 14:55 40.50411 -111.94193 9529 ft 265 kts 352°
2026-04-25 14:55 40.52212 -111.94420 9174 ft 260 kts 353°
2026-04-25 14:56 40.53987 -111.94610 8835 ft 253 kts 353°
2026-04-25 14:56 40.55703 -111.94807 8563 ft 243 kts 352°
2026-04-25 14:56 40.57362 -111.95002 8223 ft 235 kts 353°
2026-04-25 14:56 40.58970 -111.95184 7873 ft 228 kts 352°
2026-04-25 14:57 40.60523 -111.95362 7555 ft 221 kts 354°
2026-04-25 14:57 40.62038 -111.95536 7259 ft 215 kts 354°
2026-04-25 14:57 40.63502 -111.95706 7003 ft 208 kts 354°
2026-04-25 14:57 40.64928 -111.95869 6715 ft 201 kts 354°
2026-04-25 14:58 40.66294 -111.96026 6424 ft 196 kts 355°
2026-04-25 14:58 40.67641 -111.96181 6186 ft 198 kts 355°
2026-04-25 14:58 40.69010 -111.96339 5959 ft 194 kts 355°
2026-04-25 14:58 40.70299 -111.96487 5717 ft 174 kts 355°
2026-04-25 14:59 40.71441 -111.96619 5459 ft 160 kts 355°
2026-04-25 14:59 40.72524 -111.96743 5230 ft 152 kts 355°
2026-04-25 14:59 40.73559 -111.96864 5033 ft 148 kts 355°
2026-04-25 14:59 40.74588 -111.96982 4868 ft 149 kts 355°
2026-04-25 15:00 40.75619 -111.97101 4665 ft 147 kts 354°
2026-04-25 15:00 40.76634 -111.97220 4450 ft 145 kts 354°
2026-04-25 15:00 40.77629 -111.97337 4262 ft 141 kts 355°
2026-04-25 15:00 40.78492 -111.97435 4229 ft 101 kts 355°
2026-04-25 15:01 40.79010 -111.97495 4229 ft 37 kts 355°
2026-04-25 15:01 40.79189 -111.97584 4229 ft 21 kts 322°
2026-04-25 15:01 40.79210 -111.97706 4232 ft 6 kts 248°
2026-04-25 15:01 40.79168 -111.97730 4228 ft 8 kts 177°
2026-04-25 15:02 40.79094 -111.97722 4229 ft 13 kts 175°
2026-04-25 15:02 40.78991 -111.97710 4229 ft 17 kts 175°
2026-04-25 15:02 40.78863 -111.97695 4229 ft 20 kts 175°
2026-04-25 15:02 40.78722 -111.97679 4229 ft 21 kts 175°
2026-04-25 15:03 40.78584 -111.97661 4229 ft 15 kts 173°
2026-04-25 15:03 40.78513 -111.97728 4228 ft 14 kts 265°
2026-04-25 15:03 40.78501 -111.97858 4228 ft 14 kts 261°
2026-04-25 15:03 40.78496 -111.97935 4229 ft 6 kts 265°
2026-04-25 15:04 40.78514 -111.97960 4229 ft 4 kts 351°
2026-04-25 15:04 40.78535 -111.97962 4229 ft 2 kts 354°
2026-04-25 15:04 40.78542 -111.97963 4229 ft 0 kts 355°